BVX426 SCCI-SAWH

Flight info

Callsign BVX426
Flight time 0h 34m
Altitude 23000
Route ALMIR DCT DABLI DABLI1Q
Aircraft R722/M-SDFGRWY/S

Departure

Time 2026-04-21 21:55
Airport President Carlos Ibáñez International Airport (SCCI)

Arrival

Time 2026-04-21 22:30
Airport Ushuaia - Malvinas Argentinas International Airport (SAWH)
Time Latitude Longitude Altitude Speed Heading
2026-04-21 21:31 -53.00452 -70.84291 119 ft 0 kts 178°
2026-04-21 21:42 -53.00446 -70.84291 119 ft 2 kts 178°
2026-04-21 21:42 -53.00426 -70.84293 115 ft 3 kts 178°
2026-04-21 21:42 -53.00406 -70.84294 118 ft 3 kts 178°
2026-04-21 21:42 -53.00385 -70.84295 116 ft 3 kts 178°
2026-04-21 21:43 -53.00367 -70.84296 118 ft 2 kts 178°
2026-04-21 21:43 -53.00362 -70.84297 118 ft 0 kts 178°
2026-04-21 21:48 -53.00366 -70.84297 119 ft 0 kts 187°
2026-04-21 21:49 -53.00376 -70.84302 115 ft 6 kts 204°
2026-04-21 21:49 -53.00423 -70.84427 119 ft 17 kts 272°
2026-04-21 21:49 -53.00415 -70.84596 119 ft 13 kts 275°
2026-04-21 21:49 -53.00407 -70.84727 119 ft 9 kts 278°
2026-04-21 21:50 -53.00400 -70.84829 119 ft 9 kts 273°
2026-04-21 21:50 -53.00400 -70.84903 118 ft 0 kts 269°
2026-04-21 21:50 -53.00400 -70.84964 118 ft 7 kts 269°
2026-04-21 21:51 -53.00402 -70.85048 118 ft 8 kts 263°
2026-04-21 21:51 -53.00455 -70.85184 118 ft 19 kts 212°
2026-04-21 21:51 -53.00563 -70.85285 117 ft 17 kts 207°
2026-04-21 21:51 -53.00657 -70.85367 116 ft 14 kts 208°
2026-04-21 21:52 -53.00746 -70.85398 114 ft 15 kts 142°
2026-04-21 21:52 -53.00866 -70.85240 114 ft 29 kts 141°
2026-04-21 21:52 -53.01044 -70.84992 121 ft 33 kts 139°
2026-04-21 21:52 -53.01196 -70.84770 129 ft 25 kts 138°
2026-04-21 21:53 -53.01309 -70.84597 136 ft 19 kts 137°
2026-04-21 21:53 -53.01357 -70.84490 138 ft 6 kts 160°
2026-04-21 21:53 -53.01367 -70.84490 138 ft 0 kts 211°
2026-04-21 21:53 -53.01377 -70.84509 138 ft 4 kts 248°
2026-04-21 21:54 -53.01377 -70.84530 138 ft 0 kts 303°
2026-04-21 21:54 -53.01353 -70.84569 137 ft 0 kts 322°
2026-04-21 21:54 -53.01298 -70.84638 135 ft 43 kts 322°
2026-04-21 21:54 -53.00828 -70.85317 114 ft 132 kts 320°
2026-04-21 21:55 -52.99989 -70.86500 415 ft 177 kts 323°
2026-04-21 21:55 -52.99004 -70.87742 1522 ft 175 kts 323°
2026-04-21 21:55 -52.98032 -70.88941 2629 ft 172 kts 321°
2026-04-21 21:55 -52.96888 -70.89899 3146 ft 210 kts 342°
2026-04-21 21:56 -52.95217 -70.90015 3444 ft 254 kts 10°
2026-04-21 21:56 -52.93880 -70.88631 5192 ft 218 kts 51°
2026-04-21 21:56 -52.93490 -70.86211 6225 ft 240 kts 90°
2026-04-21 21:56 -52.94157 -70.83464 6740 ft 281 kts 129°
2026-04-21 21:57 -52.95860 -70.81859 7826 ft 286 kts 172°
2026-04-21 21:57 -52.97769 -70.81231 9461 ft 273 kts 169°
2026-04-21 21:57 -52.99733 -70.80571 9811 ft 315 kts 168°
2026-04-21 21:57 -53.01972 -70.79614 10371 ft 340 kts 165°
2026-04-21 21:58 -53.04156 -70.78576 12273 ft 309 kts 166°
2026-04-21 21:58 -53.06162 -70.77716 13989 ft 293 kts 170°
2026-04-21 21:58 -53.08241 -70.77064 14164 ft 323 kts 176°
2026-04-21 21:58 -53.10609 -70.76745 14127 ft 352 kts 173°
2026-04-21 21:59 -53.12953 -70.75537 14684 ft 354 kts 158°
2026-04-21 21:59 -53.15186 -70.73829 15541 ft 353 kts 155°
2026-04-21 21:59 -53.17391 -70.72021 16374 ft 356 kts 155°
2026-04-21 21:59 -53.19670 -70.70250 16914 ft 367 kts 159°
2026-04-21 22:00 -53.22007 -70.68575 17735 ft 366 kts 159°
2026-04-21 22:00 -53.24374 -70.66873 18250 ft 373 kts 159°
2026-04-21 22:00 -53.26770 -70.65148 18859 ft 376 kts 160°
2026-04-21 22:00 -53.29185 -70.63412 19444 ft 380 kts 160°
2026-04-21 22:01 -53.31625 -70.61663 20062 ft 382 kts 160°
2026-04-21 22:01 -53.34068 -70.59916 20721 ft 383 kts 161°
2026-04-21 22:01 -53.36477 -70.57986 21355 ft 385 kts 153°
2026-04-21 22:01 -53.38766 -70.55635 21988 ft 387 kts 147°
2026-04-21 22:02 -53.40949 -70.52966 22482 ft 395 kts 143°
2026-04-21 22:02 -53.43193 -70.50081 22468 ft 417 kts 144°
2026-04-21 22:02 -53.45615 -70.47180 22475 ft 440 kts 147°
2026-04-21 22:02 -53.48202 -70.44195 22476 ft 464 kts 147°
2026-04-21 22:03 -53.50896 -70.40956 22477 ft 488 kts 145°
2026-04-21 22:03 -53.53703 -70.37489 22475 ft 511 kts 145°
2026-04-21 22:03 -53.56577 -70.34005 22464 ft 509 kts 146°
2026-04-21 22:03 -53.59469 -70.30556 22462 ft 509 kts 146°
2026-04-21 22:04 -53.62343 -70.27079 22461 ft 509 kts 145°
2026-04-21 22:04 -53.65197 -70.23579 22455 ft 510 kts 144°
2026-04-21 22:04 -53.68134 -70.20005 22463 ft 533 kts 144°
2026-04-21 22:04 -53.71214 -70.16289 22458 ft 555 kts 144°
2026-04-21 22:05 -53.74350 -70.12467 22460 ft 556 kts 144°
2026-04-21 22:05 -53.77473 -70.08601 22456 ft 556 kts 144°
2026-04-21 22:05 -53.80598 -70.04756 22456 ft 555 kts 144°
2026-04-21 22:05 -53.83738 -70.00941 22452 ft 556 kts 145°
2026-04-21 22:06 -53.86867 -69.97112 22451 ft 552 kts 144°
2026-04-21 22:06 -53.89970 -69.93253 22453 ft 553 kts 143°
2026-04-21 22:06 -53.93078 -69.89401 22453 ft 553 kts 143°
2026-04-21 22:06 -53.96191 -69.85573 22460 ft 553 kts 144°
2026-04-21 22:07 -53.99308 -69.81721 22463 ft 553 kts 143°
2026-04-21 22:07 -54.02411 -69.77850 22453 ft 553 kts 143°
2026-04-21 22:07 -54.05379 -69.73851 22434 ft 552 kts 134°
2026-04-21 22:07 -54.07864 -69.68894 22464 ft 553 kts 124°
2026-04-21 22:08 -54.09867 -69.63372 22450 ft 545 kts 112°
2026-04-21 22:08 -54.11391 -69.57479 22450 ft 541 kts 107°
2026-04-21 22:08 -54.12665 -69.51462 22450 ft 538 kts 103°
2026-04-21 22:08 -54.13801 -69.45375 22447 ft 543 kts 103°
2026-04-21 22:09 -54.15033 -69.39283 22459 ft 546 kts 106°
2026-04-21 22:09 -54.16428 -69.33251 22462 ft 546 kts 107°
2026-04-21 22:09 -54.17762 -69.27183 22458 ft 544 kts 104°
2026-04-21 22:09 -54.18943 -69.21060 22463 ft 543 kts 103°
2026-04-21 22:10 -54.20160 -69.14947 22463 ft 545 kts 105°
2026-04-21 22:10 -54.21505 -69.08888 22462 ft 546 kts 107°
2026-04-21 22:10 -54.22822 -69.02832 22461 ft 544 kts 104°
2026-04-21 22:10 -54.24022 -68.96701 22459 ft 542 kts 103°
2026-04-21 22:11 -54.25227 -68.90584 22460 ft 543 kts 104°
2026-04-21 22:11 -54.26530 -68.84516 22462 ft 545 kts 106°
2026-04-21 22:11 -54.27833 -68.78431 22461 ft 544 kts 104°
2026-04-21 22:11 -54.29044 -68.72301 22471 ft 544 kts 103°
2026-04-21 22:12 -54.30241 -68.66162 22468 ft 544 kts 104°
2026-04-21 22:12 -54.31511 -68.60062 22466 ft 545 kts 105°
2026-04-21 22:12 -54.32790 -68.53952 22464 ft 544 kts 104°
2026-04-21 22:12 -54.34021 -68.47822 22466 ft 544 kts 104°
2026-04-21 22:13 -54.35221 -68.41677 22469 ft 544 kts 104°
2026-04-21 22:13 -54.36455 -68.35530 22469 ft 548 kts 104°
2026-04-21 22:13 -54.37720 -68.29369 22469 ft 547 kts 104°
2026-04-21 22:13 -54.38951 -68.23211 22466 ft 546 kts 104°
2026-04-21 22:14 -54.40147 -68.17033 22467 ft 544 kts 103°
2026-04-21 22:14 -54.41322 -68.11132 22420 ft 499 kts 105°
2026-04-21 22:14 -54.42413 -68.05732 22450 ft 462 kts 104°
2026-04-21 22:14 -54.43431 -68.00526 22458 ft 459 kts 103°
2026-04-21 22:15 -54.44413 -67.95419 22456 ft 446 kts 104°
2026-04-21 22:15 -54.45380 -67.90557 22434 ft 415 kts 104°
2026-04-21 22:15 -54.46296 -67.85928 22446 ft 407 kts 103°
2026-04-21 22:15 -54.47185 -67.81296 22452 ft 409 kts 103°
2026-04-21 22:16 -54.48080 -67.76658 22465 ft 409 kts 103°
2026-04-21 22:16 -54.48989 -67.72015 22464 ft 409 kts 103°
2026-04-21 22:16 -54.49893 -67.67370 22462 ft 409 kts 104°
2026-04-21 22:16 -54.50788 -67.62713 22463 ft 410 kts 104°
2026-04-21 22:17 -54.51749 -67.58059 21619 ft 422 kts 113°
2026-04-21 22:17 -54.53349 -67.53734 20085 ft 435 kts 129°
2026-04-21 22:17 -54.55504 -67.50081 18635 ft 434 kts 146°
2026-04-21 22:17 -54.58054 -67.47416 17155 ft 426 kts 161°
2026-04-21 22:18 -54.60821 -67.45847 15621 ft 413 kts 174°
2026-04-21 22:18 -54.63636 -67.45383 14139 ft 400 kts 186°
2026-04-21 22:18 -54.66347 -67.45948 12634 ft 387 kts 198°
2026-04-21 22:18 -54.68841 -67.47414 11101 ft 374 kts 210°
2026-04-21 22:19 -54.71041 -67.49658 9846 ft 356 kts 221°
2026-04-21 22:19 -54.72818 -67.52227 9286 ft 312 kts 227°
2026-04-21 22:19 -54.74282 -67.54513 9752 ft 270 kts 229°
2026-04-21 22:19 -54.75671 -67.57048 8579 ft 292 kts 238°
2026-04-21 22:20 -54.76948 -67.59542 8431 ft 274 kts 236°
2026-04-21 22:20 -54.78316 -67.61902 8155 ft 276 kts 230°
2026-04-21 22:20 -54.79745 -67.64150 7883 ft 272 kts 238°
2026-04-21 22:20 -54.80571 -67.66950 7580 ft 258 kts 261°
2026-04-21 22:21 -54.81019 -67.69759 7269 ft 227 kts 261°
2026-04-21 22:21 -54.81519 -67.72255 6917 ft 209 kts 257°
2026-04-21 22:21 -54.82041 -67.74480 6508 ft 189 kts 263°
2026-04-21 22:21 -54.82223 -67.76624 5948 ft 175 kts 277°
2026-04-21 22:22 -54.82261 -67.78692 5798 ft 168 kts 276°
2026-04-21 22:22 -54.82359 -67.80717 5959 ft 164 kts 277°
2026-04-21 22:22 -54.82420 -67.82638 6121 ft 161 kts 278°
2026-04-21 22:22 -54.82473 -67.84636 6290 ft 158 kts 277°
2026-04-21 22:23 -54.82530 -67.86220 6377 ft 121 kts 278°
2026-04-21 22:23 -54.82598 -67.87672 6479 ft 125 kts 275°
2026-04-21 22:23 -54.82716 -67.89268 6491 ft 132 kts 277°
2026-04-21 22:23 -54.82811 -67.90769 6480 ft 124 kts 277°
2026-04-21 22:24 -54.82928 -67.92313 6561 ft 135 kts 272°
2026-04-21 22:24 -54.83056 -67.93935 6346 ft 129 kts 278°
2026-04-21 22:24 -54.83107 -67.95499 5771 ft 131 kts 278°
2026-04-21 22:24 -54.83216 -67.97092 5234 ft 134 kts 273°
2026-04-21 22:25 -54.83354 -67.98716 4551 ft 138 kts 274°
2026-04-21 22:25 -54.83444 -68.00378 3930 ft 135 kts 275°
2026-04-21 22:25 -54.83427 -68.01987 3365 ft 134 kts 283°
2026-04-21 22:25 -54.83301 -68.03623 2950 ft 142 kts 285°
2026-04-21 22:26 -54.83176 -68.05346 2610 ft 147 kts 278°
2026-04-21 22:26 -54.83211 -68.07079 2286 ft 141 kts 270°
2026-04-21 22:26 -54.83279 -68.08779 1938 ft 143 kts 268°
2026-04-21 22:26 -54.83350 -68.10492 1707 ft 140 kts 270°
2026-04-21 22:27 -54.83363 -68.12161 1493 ft 138 kts 272°
2026-04-21 22:27 -54.83399 -68.13862 1202 ft 148 kts 264°
2026-04-21 22:27 -54.83622 -68.15651 1137 ft 151 kts 261°
2026-04-21 22:27 -54.83795 -68.17391 1215 ft 136 kts 266°
2026-04-21 22:28 -54.83870 -68.19041 887 ft 145 kts 273°
2026-04-21 22:28 -54.83950 -68.20875 755 ft 153 kts 269°
2026-04-21 22:28 -54.84010 -68.22784 762 ft 159 kts 272°
2026-04-21 22:28 -54.84037 -68.24591 769 ft 145 kts 264°
2026-04-21 22:29 -54.84198 -68.26337 257 ft 144 kts 266°
2026-04-21 22:29 -54.84273 -68.28069 134 ft 139 kts 269°
2026-04-21 22:29 -54.84326 -68.29533 111 ft 102 kts 268°
2026-04-21 22:29 -54.84365 -68.30495 110 ft 55 kts 267°
2026-04-21 22:30 -54.84377 -68.30890 77 ft 17 kts 284°
2026-04-21 22:30 -54.84292 -68.30965 114 ft 12 kts 355°
2026-04-21 22:30 -54.84213 -68.30976 113 ft 10 kts 355°
2026-04-21 22:30 -54.84170 -68.30980 113 ft 6 kts 357°
2026-04-21 22:31 -54.84168 -68.30980 113 ft 0 kts 357°
2026-04-21 22:31 -54.84119 -68.30996 113 ft 10 kts 327°
2026-04-21 22:31 -54.84097 -68.31081 113 ft 7 kts 276°
2026-04-21 22:31 -54.84092 -68.31161 112 ft 4 kts 303°
2026-04-21 22:32 -54.84075 -68.31178 112 ft 6 kts 346°
2026-04-21 22:32 -54.84038 -68.31187 112 ft 1 kts 359°
2026-04-21 22:32 -54.84031 -68.31187 113 ft 1 kts 358°
2026-04-21 22:32 -54.84013 -68.31188 113 ft 0 kts 357°